Delhi, Ontario

9:14 AM EDT on June 27, 2017 (GMT -0400)
Delhi

Weather History for CXDI - October, 2012

Change the Weather History Date:

Thursday, October 4, 2012

  Actual Average Record
Temperature  
Mean Temperature 63 °F -  
Max Temperature 69 °F - - ()
Min Temperature 57 °F - - ()
Degree Days  
Heating Degree Days 2    
Growing Degree Days 13 (Base 50)    
Moisture  
Dew Point 54 °F    
Average Humidity 72    
Maximum Humidity 87    
Minimum Humidity 51    
Precipitation  
Precipitation 0.00 in - - ()
Sea Level Pressure  
Sea Level Pressure 30.06 in    
Wind  
Wind Speed 4 mph ()    
Max Wind Speed 14 mph    
Max Gust Speed 24 mph    
T = Trace of Precipitation, MM = Missing Value Source: Averaged Metar Reports

Daily Weather History Graph

Daily Weather History Graph

Search for Another Location

Airport or City:

Trip Planner

Search our weather history database for the weather conditions in past years. The results will help you decide how hot, cold, wet, or windy it might be!

Date:

Astronomy

Oct. 04, 2012 Rise Set
Actual Time 7:23 AM EDT 6:57 PM EDT
Civil Twilight 6:55 AM EDT 7:25 PM EDT
Nautical Twilight 6:22 AM EDT 7:58 PM EDT
Astronomical Twilight 5:49 AM EDT 8:31 PM EDT
Moon 9:25 PM EDT (10/4) 11:45 AM EDT (10/4)
Length of Visible Light 12h 30m
Length of Day
11h 34m
Waning Gibbous, 82% of the Moon is Illuminated
Oct 4
Waning Gibbous
Oct 8
Last Quarter
Oct 15
New
Oct 21
First Quarter
Oct 29
Full

Hourly Weather History & Observations

Time (EDT) Temp. Dew Point Humidity Pressure Visibility Wind Dir Wind Speed Gust Speed Precip Events Conditions
12:00 AM 58.5 °F 53.4 °F 83% 30.10 in - South 2.3 mph - N/A   Unknown
1:00 AM 59.0 °F 53.8 °F 83% 30.10 in - South 2.3 mph - N/A   Unknown
2:00 AM 59 °F 54 °F 79% 30.10 in - SSE 3.5 mph - -  
2:00 AM 58.8 °F 54.1 °F 84% 30.10 in - SSE 3.5 mph - N/A   Unknown
3:00 AM 57.9 °F 54.0 °F 87% 30.10 in - Calm Calm - N/A   Unknown
4:00 AM 58.6 °F 53.6 °F 83% 30.08 in - Calm Calm - N/A   Unknown
5:00 AM 58.6 °F 54.0 °F 84% 30.09 in - Calm Calm - N/A   Unknown
6:00 AM 59.7 °F 54.3 °F 82% 30.09 in - South 2.3 mph - N/A   Unknown
7:00 AM 59.4 °F 54.3 °F 83% 30.09 in - South 3.5 mph - N/A   Unknown
8:00 AM 60 °F 56 °F 81% 30.09 in - South 2.3 mph - -  
8:00 AM 59.9 °F 55.6 °F 86% 30.09 in - South 2.3 mph - N/A   Unknown
9:00 AM 61.9 °F 55.9 °F 81% 30.09 in - SSW 6.9 mph - N/A   Unknown
10:00 AM 64.2 °F 56.5 °F 76% 30.08 in - SSW 8.1 mph - N/A   Unknown
11:00 AM 67.1 °F 54.7 °F 64% 30.07 in - SW 10.4 mph 19.6 mph N/A   Unknown
12:00 PM 68.7 °F 55.4 °F 62% 30.07 in - SW 10.4 mph 18.4 mph N/A   Unknown
1:00 PM 68.7 °F 54.7 °F 61% 30.06 in - SSW 11.5 mph 18.4 mph N/A   Unknown
2:00 PM 69 °F 55 °F 51% 30.04 in - SSW 13.8 mph - -  
2:00 PM 69.1 °F 55.0 °F 61% 30.04 in - SSW 13.8 mph 20.7 mph N/A   Unknown
3:00 PM 68.0 °F 52.7 °F 58% 30.03 in - SSW 13.8 mph 24.2 mph N/A   Unknown
4:00 PM 68.4 °F 54.9 °F 62% 30.03 in - SSW 11.5 mph 19.6 mph N/A   Unknown
5:00 PM 68.0 °F 53.2 °F 59% 30.03 in - SW 10.4 mph 18.4 mph N/A   Unknown
6:00 PM 67.1 °F 52.2 °F 59% 30.04 in - SW 8.1 mph 17.3 mph N/A   Unknown
7:00 PM 64.6 °F 51.6 °F 63% 30.04 in - SSW 5.8 mph - N/A   Unknown
8:00 PM 63 °F 52 °F 58% 30.04 in - SSW 4.6 mph - -  
8:00 PM 63.0 °F 51.8 °F 67% 30.04 in - SSW 4.6 mph - N/A   Unknown
9:00 PM 61.0 °F 52.2 °F 73% 30.04 in - Calm Calm - N/A   Unknown
10:00 PM 60.3 °F 52.9 °F 77% 30.03 in - South 3.5 mph - N/A   Unknown
11:00 PM 59.7 °F 52.7 °F 78% 30.01 in - South 3.5 mph - N/A   Unknown